Flag for Canada Weather past 2 weeks in Brampton, Ontario, Canada

Now
68 °F

Partly sunny.


Feels Like: 68 °F
Forecast: 58 / 67 °F
Wind: 20 mph from Northwest

Location: Toronto Pearson International Airport

Current Time: Jul 28, 2014 at 1:31:01 PM

Latest Report: Jul 28, 2014 at 1:00 PM


Visibility: 15 mi

Pressure: 29.75 "Hg

Humidity: 60%

Dew point: 54 °F

Location of BramptonLocation

Historic Weather in Brampton — Graph

°F

Brampton temperature yesterday

Maximum temperature yesterday: 84 °F (at 3:00 PM)
Minimum temperature yesterday: 64 °F (at 9:57 PM)
Average temperature yesterday: 74 °F

Past Weeks' High & Low Weather Summary

 TemperatureHumidityPressure
High86 °F (Jul 22, 7:00 PM)100% (Jul 19, 9:00 PM)30.24 "Hg (Jul 19, 9:00 PM)
Low52 °F (Jul 17, 5:00 AM)29% (Jul 18, 6:00 PM)29.60 "Hg (Jul 28, 3:52 AM)
Average68 °F66%29.95 "Hg
* Reported Jul 13 12:00 Noon — Jul 28 12:00 Noon, Brampton, Weather by CustomWeather, © 2014

Note: Actual official high and low records may vary slightly from our data, if they occured in-between our weather recording intervals... More about our weather records

Advertising

Brampton weather history for previous 24 hours

 ConditionsComfort  
Time TempWeatherWind HumidityBarometerVisibility
12:00 PM
Jul 28
63 °FPartly sunny.18 mph73%29.75 "Hg15 mi
11:00 AM61 °FMore clouds than sun.16 mph83%29.74 "Hg15 mi
10:00 AM59 °FLight rain. Mostly cloudy.16 mph88%29.72 "Hg15 mi
9:00 AM61 °FLight rain. Mostly cloudy.22 mph88%29.70 "Hg15 mi
8:00 AM61 °FLight rain. Mostly cloudy.15 mph88%29.67 "Hg12 mi
7:00 AM63 °FLight rain. Mostly cloudy.13 mph88%29.65 "Hg8 mi
6:00 AM63 °FLight rain. Mostly cloudy.14 mph88%29.63 "Hg4 mi
5:00 AM63 °FRain. Mostly cloudy.15 mph94%29.61 "Hg6 mi
4:00 AM64 °FRain. Overcast.14 mph88%29.60 "Hg6 mi
3:52 AM64 °FLight rain. Overcast.13 mph94%29.60 "Hg6 mi
3:00 AM64 °FHeavy rain. Overcast.7 mph94%29.61 "Hg4 mi
2:48 AM64 °FHeavy rain. Overcast.6 mph94%29.61 "Hg4 mi
2:00 AM64 °FLight rain. Overcast.5 mph94%29.62 "Hg15 mi
1:00 AM64 °FLight rain. Mostly cloudy.9 mph88%29.62 "Hg15 mi
12:00 AM64 °FLots of rain. Overcast.9 mph88%29.65 "Hg6 mi
11:00 PM
Jul 27
64 °FThunderstorms. Overcast.10 mph88%29.67 "Hg6 mi
10:00 PM64 °FSprinkles. Mostly cloudy.12 mph88%29.66 "Hg15 mi
9:57 PM64 °FSprinkles. Mostly cloudy.12 mph88%29.66 "Hg15 mi
9:00 PM66 °FThunderstorms. Overcast.5 mph88%29.65 "Hg5 mi
8:00 PM77 °FThunderstorms. Overcast.8 mph57%29.61 "Hg6 mi
7:00 PM81 °FPartly sunny.6 mph48%29.62 "Hg15 mi
6:00 PM82 °FPartly sunny.9 mph42%29.61 "Hg15 mi
5:00 PM82 °FScattered clouds.10 mph45%29.63 "Hg15 mi
4:00 PM82 °FBroken clouds.15 mph48%29.65 "Hg15 mi
3:00 PM84 °FBroken clouds.15 mph45%29.67 "Hg15 mi
2:00 PM82 °FPartly sunny.12 mph48%29.68 "Hg15 mi
1:00 PM81 °FPartly sunny.5 mph54%29.69 "Hg15 mi
Weather by CustomWeather, © 2014

See weather overviewHow to use our weather pages